Showing default

GLOBALSTAR M001, 25162

Orbit data source: Space-Track

GLOBALSTAR M001, 25162 is a payload satellite owned by Globalstar (US) in LEO that was launched on Sat, 14 Feb 1998 UTC via a DELTA 7420-10C launch vehicle from the Air Force Eastern Test Range (AFETR). Payload-class satellites include a variety of spacecraft equipped with specific instruments for various scientific and technological missions. These include communications satellites like Starlink; space stations such as the ISS; scientific satellites like the Hubble; Earth observation satellites from companies like Planet Labs, Umbra, and HawkEye 360; GPS; miniature CubeSats for education and research; and military/defense satellites.

Loading next visibility...
Identifier
25162, 1998-008A
Orbit
LEO
Last TLE update
16 hours ago
Origin
Manufacturer
SS/Loral
Mission
Non-operational Commercial Communications
Bus & Motor
LS-400, Unknown motor
Mass
450 kg wet, 380 kg dry
Launch date (UTC)
1998-02-14 (27 years ago)
Launch vehicle
DELTA 7420-10C
Launch site
Air Force Eastern Test Range (AFETR)
Object type
Payload
Rocket body
Debris
Shape & HBR
Box + 2 Pan, 12 m
Radar Cross Section
5.587 m², Large (>1 m²)

Expand to show TLE details & history

TLE from 16 hours ago
0 GLOBALSTAR M001
1 25162U 98008A   25181.69457338 -.00000094  00000-0  22314-4 0  9993
2 25162  52.0046 293.9109 0000926 262.1659 244.5456 12.38213966245389
Epoch: 2025-06-30T16:40Z
TLE epoch observation values (Epoch: 2025-06-30T16:40:11.14Z)
Latitude
25.70083°
Longitude
-77.10637°
Altitude
1,515.422 km
Speed
7.11 km/s
True Right ascension
06h 07m 45s
True Declination
25° 34' 47"
Sunlit
Object was in daylight at epoch
Visualization orbit readout
Latitude
-42.71158°
Longitude
-11.219°
Altitude
1,527.778 km
Speed
7.102 km/s
Apparent Right ascension
09h 30m 34s
Apparent Declination
-42° 30' 14"
Sunlit
Object is in daylight
Visualization observer readout
Local Sidereal Time
20:18:06
Azimuth
253.34° W
Elevation
-76.154°
Doppler factor
1
Orbital elements
Apogee altitude
1,515.301 km
Perigee altitude
1,513.839 km
Semi-major axis
7,892.707 km
Eccentricity
0.00009
Inclination
52.0046°
RAAN
293.9109°
Arg. of periapsis
262.1659°
True anomaly
Unknown
Mean anomaly
244.5456°
Eccentric anomaly
Unknown
Mean motion
3.09531 °/min
Orbital period
116.3 mins
BSTAR
0.000022314
Loading maneuver chart data...
Loading SW <> Apogee altitude chart data...
Loading historical data...
Loading historical data...
Loading historical data...
Loading historical data...
Loading historical data...
Loading historical data...
Loading historical data...

GLOBALSTAR M001 Visibility forecast

Observer location: undefined°, undefined°

Span
Click to sort rows by Start time (UTC) header in descending order
Start Az.
Max El. time (UTC)
Max El. Az.
Max El.
End time (UTC)
End Az.
16 mins2025-07-01 09:25:56.811Z204.699° SW2025-07-01 09:33:56.811Z132.361° SE39.408°2025-07-01 09:41:56.811Z59.393° ENE
16 mins2025-07-01 11:28:56.811Z257.811° W2025-07-01 11:35:56.811Z325.686° NNW40.401°2025-07-01 11:44:56.811Z51.183° ENE
15 mins2025-07-01 13:32:56.811Z296.086° NW2025-07-01 13:39:56.811Z356.179° N32.114°2025-07-01 13:47:56.811Z63.579° ENE
16 mins2025-07-01 15:36:56.811Z312.168° NW2025-07-01 15:43:56.811Z20.745° NNE39.127°2025-07-01 15:52:56.811Z101.14° ESE
16 mins2025-07-01 17:38:56.811Z301.66° NW2025-07-01 17:46:56.811Z215.084° SW41.379°2025-07-01 17:54:56.811Z149.376° SSE
7 mins2025-07-01 19:43:56.811Z265.817° W2025-07-01 19:46:56.811Z245.223° WSW13.99°2025-07-01 19:50:56.811Z217.816° SW
|